Location: Newark
(33.6333°S, 78.8500°W)
Time: 23:24:48
(UTC+00:00)

Vanguard 2 - All Passes

Search period start: 22 September 2019 00:00
Search period end: 02 October 2019 00:00
Orbit: 554 x 2937 km, 32.9° (Epoch: 22 September)

Date Brightness Start Highest point End Pass type
(mag) Time Alt. Az. Time Alt. Az. Time Alt. Az.
22 Sep - 00:34:36 10° W 00:46:09 70° NNW 01:03:17 10° ENE visible
22 Sep - 02:44:55 10° W 02:57:58 40° NNW 03:13:44 10° NNE visible
22 Sep - 05:02:05 10° WNW 05:09:13 14° NW 05:16:29 10° NNW visible
22 Sep - 18:29:48 10° NNW 18:34:20 30° NE 18:40:57 10° E daylight
22 Sep - 20:36:04 10° WNW 20:42:38 77° NNE 20:54:01 10° E daylight
22 Sep - 22:43:56 10° W 22:52:55 85° N 23:08:00 10° E daylight
23 Sep - 00:52:42 10° W 01:04:19 61° NNW 01:21:10 10° NE visible
23 Sep - 03:03:44 10° W 03:15:58 31° NW 03:30:22 10° NNE visible
23 Sep - 18:47:07 10° NW 18:51:58 41° NNE 18:59:28 10° E daylight
23 Sep - 20:53:59 10° W 21:00:43 84° N 21:12:25 10° E daylight
23 Sep - 23:01:57 10° W 23:11:07 79° N 23:26:20 10° ENE daylight
24 Sep - 01:10:54 10° W 01:22:26 51° NNW 01:38:45 10° NE visible
24 Sep - 03:23:03 10° W 03:33:56 24° NW 03:46:22 10° N visible
24 Sep - 17:01:00 10° NNE 17:02:28 11° NE 17:04:03 10° ENE daylight
24 Sep - 19:04:41 10° NW 19:09:44 55° NNE 19:17:50 10° E daylight
24 Sep - 21:11:55 10° W 21:18:49 86° N 21:30:50 10° E daylight
24 Sep - 23:19:57 10° W 23:29:16 72° NNW 23:44:33 10° ENE visible
25 Sep - 01:29:14 10° W 01:40:31 42° NNW 01:56:01 10° NE visible
25 Sep - 03:43:25 10° WNW 03:51:56 17° NW 04:01:20 10° N visible
25 Sep - 17:16:50 10° N 17:19:59 19° NE 17:23:50 10° E daylight
25 Sep - 19:22:25 10° WNW 19:27:37 68° NNE 19:36:09 10° E daylight
25 Sep - 21:29:53 10° W 21:36:57 85° N 21:49:14 10° E daylight
25 Sep - 23:38:00 10° W 23:47:24 63° NNW 00:02:33 10° ENE visible
26 Sep - 01:47:50 10° W 01:58:37 33° NNW 02:12:53 10° NNE visible
26 Sep - 04:07:30 10° NW 04:10:01 10° NW 04:12:36 10° NNW visible
26 Sep - 17:33:49 10° NNW 17:37:35 28° NNE 17:42:35 10° E daylight
26 Sep - 19:40:16 10° WNW 19:45:36 78° N 19:54:28 10° E daylight
26 Sep - 21:47:51 10° W 21:55:04 81° N 22:07:36 10° ENE daylight
26 Sep - 23:56:06 10° W 00:05:32 53° NNW 00:20:19 10° NE visible
27 Sep - 02:06:49 10° W 02:16:42 26° NNW 02:29:13 10° NNE visible
27 Sep - 17:51:13 10° NW 17:55:17 40° NNE 18:01:00 10° E daylight
27 Sep - 19:58:10 10° W 20:03:38 84° N 20:12:47 10° E daylight
27 Sep - 22:05:50 10° W 22:13:11 73° NNW 22:25:51 10° ENE daylight
28 Sep - 00:14:20 10° W 00:23:39 43° NNW 00:37:47 10° NE visible
28 Sep - 02:26:35 10° WNW 02:34:50 18° NW 02:44:41 10° N visible
28 Sep - 16:04:21 10° NNE 16:05:41 11° NE 16:07:06 10° NE daylight
28 Sep - 18:08:50 10° WNW 18:13:06 55° NNE 18:19:17 10° E daylight
28 Sep - 20:16:07 10° W 20:21:42 86° N 20:31:07 10° E daylight
28 Sep - 22:23:49 10° W 22:31:17 64° NNW 22:43:57 10° ENE daylight
29 Sep - 00:32:46 10° W 00:41:47 34° NNW 00:54:51 10° NNE visible
29 Sep - 02:48:20 10° NW 02:53:01 12° NW 02:58:07 10° NNW visible
29 Sep - 16:20:28 10° NNW 16:23:22 19° NNE 16:26:34 10° ENE daylight
29 Sep - 18:26:38 10° WNW 18:31:01 69° NNE 18:37:30 10° E daylight
29 Sep - 20:34:04 10° W 20:39:46 82° N 20:49:26 10° E daylight
29 Sep - 22:41:51 10° W 22:49:23 53° NNW 23:01:50 10° NE daylight
30 Sep - 00:51:33 10° W 00:59:56 26° NNW 01:11:25 10° NNE visible
30 Sep - 16:37:36 10° NW 16:41:05 29° NNE 16:45:07 10° E daylight
30 Sep - 18:44:31 10° W 18:49:00 80° N 18:55:44 10° E daylight
30 Sep - 20:52:00 10° W 20:57:49 75° N 21:07:41 10° ENE daylight
30 Sep - 23:00:01 10° W 23:07:29 43° NNW 23:19:26 10° NE daylight
01 Oct - 01:10:58 10° WNW 01:18:07 19° NNW 01:27:12 10° N visible
01 Oct - 16:55:07 10° NW 16:58:54 42° NNE 17:03:25 10° E daylight
01 Oct - 19:02:27 10° W 19:07:00 84° N 19:13:58 10° E daylight
01 Oct - 21:09:58 10° W 21:15:53 64° NNW 21:25:50 10° ENE daylight
01 Oct - 23:18:20 10° W 23:25:37 34° NNW 23:36:41 10° NNE daylight
